DateTimeUTC,F1_A11,F1_S11,BsB_S11,BsG_S11,BsR_S11,BbsB_S11,BbsG_S11,BbsR_S11,BaB_A11,BaG_A11,BaR_A11,Tu_S11,T_S11,Uu_S11,U_S11,P_S11,T1_A11
2021-10-12T11:00:00Z,00000200,21000000,,,,,,,0000.19,0000.33,-000.07,16.8,24.0,,00.0,0670.5,30.9
2021-10-12T11:01:00Z,00000200,21000000,,,,,,,-000.00,-000.03,0000.17,16.8,24.0,,00.0,0670.5,30.9
2021-10-12T11:02:00Z,00000200,21000000,,,,,,,0000.14,-000.04,0000.20,16.8,24.0,,00.0,0670.5,30.9
2021-10-12T11:03:00Z,00000200,61000000,,,,,,,0000.75,0000.63,0000.16,16.8,24.0,,00.0,0670.5,30.9
2021-10-12T11:04:00Z,00000200,41000000,0002.45,0001.82,0001.41,0000.01,0000.60,0000.31,0000.53,0000.64,0000.51,17.2,23.9,,00.0,0671.5,30.9
2021-10-12T11:05:00Z,00000200,01000000,0003.08,0001.73,0001.13,0000.25,0000.39,-000.15,0000.12,0000.03,0000.41,17.3,23.9,,00.0,0671.5,31.0
2021-10-12T11:06:00Z,00000200,01000000,0003.14,0001.84,0001.19,0000.52,0000.20,0000.08,0000.64,0000.32,0000.13,17.3,23.9,,00.0,0671.5,30.9
2021-10-12T11:07:00Z,00000200,01000000,0003.09,0001.89,0001.01,0000.22,0000.56,0000.06,0000.63,0001.00,0000.47,17.3,23.9,,00.0,0671.5,30.9
2021-10-12T11:08:00Z,00000200,01000000,0002.51,0001.89,0001.29,0000.16,0000.39,0000.04,0000.45,0000.05,0000.18,17.2,23.9,,00.0,0671.5,30.9
2021-10-12T11:09:00Z,00000200,01000000,0001.73,0002.02,0001.37,-000.01,0000.60,0000.09,0000.51,0000.43,0000.12,17.2,23.8,,00.0,0671.5,30.9
2021-10-12T11:10:00Z,00000200,01000000,0003.29,0001.68,0000.93,0000.11,0000.29,-000.14,0000.53,0000.42,0000.00,17.1,23.8,,00.0,0671.5,30.9
2021-10-12T11:11:00Z,00000200,01000000,0003.60,0002.07,0001.27,0000.29,0000.28,0000.30,0000.56,0000.64,0000.66,17.0,23.8,,00.0,0671.5,30.9
2021-10-12T11:12:00Z,00000200,01000000,0003.16,0001.93,0001.20,0000.14,0000.23,0000.29,0000.46,0000.33,0000.57,17.0,23.7,,00.0,0671.5,30.9
2021-10-12T11:13:00Z,00000200,01000000,0002.86,0001.99,0001.39,-000.22,0000.35,0000.52,0000.45,0000.68,-000.02,17.0,23.7,,00.0,0671.5,30.9
2021-10-12T11:14:00Z,00000200,01000000,0002.82,0001.84,0001.39,-000.36,0000.39,0000.34,0000.53,0000.10,0000.68,17.0,23.7,,00.0,0671.5,30.9
2021-10-12T11:15:00Z,00000200,01000000,0003.20,0002.21,0001.34,0000.57,0000.14,0000.32,0000.70,0000.99,0000.35,17.0,23.7,,00.0,0671.5,30.9
2021-10-12T11:16:00Z,00000200,01000000,0002.49,0002.21,0001.12,0000.03,0000.20,0000.04,0000.62,0000.29,0000.30,17.1,23.7,,00.0,0671.5,30.9
2021-10-12T11:17:00Z,00000200,01000000,0002.82,0002.38,0001.12,0000.30,0000.22,0000.17,0000.50,0000.67,0000.51,17.1,23.7,,00.0,0671.4,30.9
2021-10-12T11:18:00Z,00000200,01000000,0003.07,0002.11,0001.38,-000.21,0000.23,-000.12,0000.90,0000.45,0000.59,17.2,23.7,,00.0,0671.5,30.9
2021-10-12T11:19:00Z,00000200,01000000,0003.36,0002.47,0001.34,0000.81,0000.37,0000.47,0000.72,0000.99,0000.68,17.3,23.8,,00.0,0671.4,30.9
2021-10-12T11:20:00Z,00000200,01000000,0003.73,0002.21,0001.68,0000.40,0000.18,0000.28,0000.17,0000.23,0000.02,17.3,23.8,,00.0,0671.4,30.9
2021-10-12T11:21:00Z,00000200,01000000,0003.62,0001.92,0001.30,0000.52,0000.46,0000.18,0000.93,0000.87,0000.65,17.3,23.8,,00.0,0671.4,30.9
2021-10-12T11:22:00Z,00000200,01000000,0003.38,0002.45,0001.64,0000.18,0000.20,0000.42,0000.26,0000.08,-000.03,17.3,23.9,,00.0,0671.4,30.9
2021-10-12T11:23:00Z,00000200,01000000,0003.59,0002.73,0001.64,0000.76,0000.53,0000.13,0000.93,0000.67,0000.62,17.2,23.8,,00.0,0671.4,30.9
2021-10-12T11:24:00Z,00000200,01000000,0003.99,0002.47,0001.94,-000.14,0000.44,0000.45,0000.43,0000.64,-000.07,17.2,23.8,,00.0,0671.4,30.9
2021-10-12T11:25:00Z,00000200,01000000,0004.53,0002.46,0001.77,0001.23,0000.50,0000.17,0000.75,0000.66,0000.68,17.1,23.7,,00.0,0671.3,30.9
2021-10-12T11:26:00Z,00000200,01000000,0003.23,0002.75,0001.36,0000.36,0000.50,0000.47,0000.94,0000.42,0000.55,17.0,23.7,,00.0,0671.4,30.9
2021-10-12T11:27:00Z,00000200,01000000,0004.96,0003.60,0002.49,-000.33,0000.45,0000.55,0006.92,0006.70,0005.08,17.0,23.7,,00.0,0671.6,30.9
2021-10-12T11:28:00Z,00000200,01000000,0004.28,0003.17,0002.00,0000.20,0000.21,0000.52,-002.89,-002.47,-001.81,17.0,23.6,,00.0,0671.7,30.9
2021-10-12T11:29:00Z,00000200,01000000,0004.40,0003.16,0001.75,0000.51,0000.32,0000.03,0000.07,-000.03,0000.12,17.0,23.6,,00.0,0671.7,30.9
2021-10-12T11:30:00Z,00000200,01000000,0003.77,0002.98,0001.89,0000.25,0000.51,0000.33,0000.72,0000.61,0000.50,17.1,23.7,,00.0,0671.7,30.9
2021-10-12T11:31:00Z,00000200,01000000,0005.01,0003.02,0001.76,0000.63,0000.53,0000.72,0000.67,0000.23,0000.35,17.1,23.7,,00.0,0671.7,30.9
2021-10-12T11:32:00Z,00000200,01000000,0004.07,0002.75,0001.44,0000.45,0000.36,0000.38,0000.43,0000.73,0000.11,17.1,23.7,,00.0,0671.7,30.9
2021-10-12T11:33:00Z,00000200,01000000,0004.03,0002.98,0002.01,0000.08,0000.41,0000.52,0000.83,0000.59,0000.53,17.1,23.7,,00.0,0671.7,30.9
2021-10-12T11:34:00Z,00000200,01000000,0005.29,0002.66,0001.56,0000.07,0000.54,0000.39,0000.48,0000.61,0000.52,17.2,23.7,,00.0,0671.7,30.9
2021-10-12T11:35:00Z,00000200,01000000,0005.09,0002.31,0001.48,0000.35,0000.53,0000.43,0000.43,0000.51,0000.10,17.2,23.8,,00.0,0671.7,31.0
2021-10-12T11:36:00Z,00000200,01000000,0004.19,0003.07,0001.93,0000.91,0000.67,0000.48,0000.88,0000.22,0000.49,17.3,23.8,,00.0,0671.7,31.0
2021-10-12T11:37:00Z,00000200,01000000,0004.49,0002.89,0002.15,-000.20,0000.32,0000.72,0000.43,0000.53,0000.39,17.3,23.8,,00.0,0671.7,30.9
2021-10-12T11:38:00Z,00000200,01000000,0003.63,0003.01,0001.78,0000.93,0000.43,0000.17,0000.54,0000.56,0000.13,17.2,23.8,,00.0,0671.6,30.9
2021-10-12T11:39:00Z,00000200,01000000,0004.30,0003.23,0002.07,0000.69,0000.34,0000.05,0000.95,0000.73,0000.88,17.2,23.8,,00.0,0671.7,30.9
2021-10-12T11:40:00Z,00000200,01000000,0003.64,0002.64,0001.75,0000.08,0000.39,0000.04,0000.69,0000.86,0000.62,17.1,23.7,,00.0,0671.7,30.9
2021-10-12T11:41:00Z,00000200,01000000,0003.95,0002.94,0001.97,-000.00,0000.14,0000.51,0000.80,0000.60,0000.40,17.0,23.7,,00.0,0671.7,30.9
2021-10-12T11:42:00Z,00000200,01000000,0004.43,0002.58,0001.31,0000.09,0000.32,-000.01,0000.71,0000.81,0000.51,17.0,23.7,,00.0,0671.7,30.9
2021-10-12T11:43:00Z,00000200,01000000,0004.56,0002.28,0001.68,0000.07,0000.91,0000.37,0000.76,0000.36,0000.26,17.0,23.6,,00.0,0671.7,30.9
2021-10-12T11:44:00Z,00000200,01000000,0004.28,0002.42,0001.01,0000.46,0000.52,0000.09,0000.39,0000.38,-000.04,17.0,23.6,,00.0,0671.7,30.9
2021-10-12T11:45:00Z,00000200,01000000,0003.85,0002.12,0001.04,-000.10,0000.42,0000.27,0000.44,0000.85,0000.81,17.1,23.7,,00.0,0671.7,30.9
2021-10-12T11:46:00Z,00000200,01000000,0003.35,0002.16,0000.82,0000.32,0000.29,0000.15,0001.08,0000.75,0000.67,17.1,23.7,,00.0,0671.6,30.9
2021-10-12T11:47:00Z,00000200,01000000,0003.38,0001.90,0001.05,0000.32,0000.42,0000.09,0000.47,0000.22,0000.05,17.1,23.7,,00.0,0671.6,30.9
2021-10-12T11:48:00Z,00000200,01000000,0002.95,0001.79,0000.64,0000.92,0000.45,0000.39,0000.66,0000.65,0000.48,17.2,23.7,,00.0,0671.6,30.9
2021-10-12T11:49:00Z,00000200,01000000,0003.13,0001.24,0001.02,0000.26,0000.34,0000.16,0000.45,0000.48,0000.58,17.2,23.8,,00.0,0671.6,31.0
2021-10-12T11:50:00Z,00000200,01000000,0002.49,0001.57,0001.20,0000.61,0000.28,0000.05,0000.61,0000.53,0000.46,17.3,23.8,,00.0,0671.6,31.0
2021-10-12T11:51:00Z,00000200,01000000,0002.08,0001.56,0000.90,0000.39,0000.29,0000.17,0000.56,0000.28,-000.15,17.3,23.8,,00.0,0671.6,31.0
2021-10-12T11:52:00Z,00000200,01000000,0002.40,0002.11,0000.70,-000.13,0000.44,0000.00,0000.67,0000.56,0000.42,17.3,23.8,,00.0,0671.5,31.0
2021-10-12T11:53:00Z,00000200,01000000,0002.97,0002.02,0000.93,0000.18,0000.31,0000.30,0000.23,0000.16,0000.55,17.2,23.8,,00.0,0671.5,30.9
2021-10-12T11:54:00Z,00000200,01000000,0003.02,0002.43,0001.30,0000.40,0000.27,0000.31,0000.51,0000.44,-000.13,17.2,23.8,,00.0,0671.5,30.9
2021-10-12T11:55:00Z,00000200,01000000,0003.47,0001.69,0000.64,0000.47,0000.29,0000.14,0000.73,0000.87,0000.69,17.1,23.7,,00.0,0671.5,30.9
2021-10-12T11:56:00Z,00000200,01000000,0003.09,0001.76,0001.10,0000.49,0000.32,0000.47,0000.49,0000.49,0000.43,17.1,23.7,,00.0,0671.5,30.9
2021-10-12T11:57:00Z,00000200,41000000,,,,,,,-000.23,-000.25,-000.30,17.1,23.7,,00.0,0671.6,30.9
2021-10-12T11:58:00Z,00000200,61000000,,,,,,,0000.10,0000.11,0000.02,16.7,23.8,,00.0,0670.5,30.9
2021-10-12T11:59:00Z,00000200,21000000,,,,,,,-000.08,-000.15,0000.22,16.7,23.9,,00.0,0670.5,30.9
